Year,Month,Day,Hour,Minute,Value (Times are PST for temperature in C)
2017,08,12,00,00,19.20
2017,08,12,00,01,19.20
2017,08,12,00,02,19.10
2017,08,12,00,03,19.10
2017,08,12,00,04,19.10
2017,08,12,00,05,19.10
2017,08,12,00,06,19.10
2017,08,12,00,07,19.10
2017,08,12,00,08,19.10
2017,08,12,00,09,19.10
2017,08,12,00,10,19.10
2017,08,12,00,11,19.10
2017,08,12,00,12,19.10
2017,08,12,00,13,19.10
2017,08,12,00,14,19.00
2017,08,12,00,15,19.00
2017,08,12,00,16,19.00
2017,08,12,00,17,19.10
2017,08,12,00,18,19.10
2017,08,12,00,19,19.10
2017,08,12,00,20,19.00
2017,08,12,00,21,19.00
2017,08,12,00,22,19.00
2017,08,12,00,23,19.00
2017,08,12,00,24,18.90
2017,08,12,00,25,18.90
2017,08,12,00,26,18.90
2017,08,12,00,27,18.90
2017,08,12,00,28,18.90
2017,08,12,00,29,18.90
2017,08,12,00,30,18.90
2017,08,12,00,31,18.90
2017,08,12,00,32,18.90
2017,08,12,00,33,18.90
2017,08,12,00,34,18.90
2017,08,12,00,35,18.90
2017,08,12,00,36,18.80
2017,08,12,00,37,18.80
2017,08,12,00,38,18.80
2017,08,12,00,39,18.80
2017,08,12,00,40,18.80
2017,08,12,00,41,18.80
2017,08,12,00,42,18.80
2017,08,12,00,43,18.80
2017,08,12,00,44,18.80
2017,08,12,00,45,18.80
2017,08,12,00,46,18.80
2017,08,12,00,47,18.80
2017,08,12,00,48,18.80
2017,08,12,00,49,18.80
2017,08,12,00,50,18.80
2017,08,12,00,51,18.80
2017,08,12,00,52,18.80
2017,08,12,00,53,18.80
2017,08,12,00,54,18.80
2017,08,12,00,55,18.80
2017,08,12,00,56,18.70
2017,08,12,00,57,18.70
2017,08,12,00,58,18.70
2017,08,12,00,59,18.70
2017,08,12,01,00,18.70
2017,08,12,01,01,18.70
2017,08,12,01,02,18.70
2017,08,12,01,03,18.70
2017,08,12,01,04,18.70
2017,08,12,01,05,18.70
2017,08,12,01,06,18.70
2017,08,12,01,07,18.70
2017,08,12,01,08,18.70
2017,08,12,01,09,18.70
2017,08,12,01,10,18.70
2017,08,12,01,11,18.80
2017,08,12,01,12,18.80
2017,08,12,01,13,18.80
2017,08,12,01,14,18.80
2017,08,12,01,15,18.90
2017,08,12,01,16,18.90
2017,08,12,01,17,18.90
2017,08,12,01,18,18.90
2017,08,12,01,19,18.90
2017,08,12,01,20,18.90
2017,08,12,01,21,18.90
2017,08,12,01,22,18.90
2017,08,12,01,23,18.90
2017,08,12,01,24,18.90
2017,08,12,01,25,19.00
2017,08,12,01,26,19.00
2017,08,12,01,27,19.10
2017,08,12,01,28,19.10
2017,08,12,01,29,19.20
2017,08,12,01,30,19.20
2017,08,12,01,31,19.30
2017,08,12,01,32,19.30
2017,08,12,01,33,19.30
2017,08,12,01,34,19.40
2017,08,12,01,35,19.40
2017,08,12,01,36,19.40
2017,08,12,01,37,19.50
2017,08,12,01,38,19.50
2017,08,12,01,39,19.60
2017,08,12,01,40,19.60
2017,08,12,01,41,19.60
2017,08,12,01,42,19.60
2017,08,12,01,43,19.60
2017,08,12,01,44,19.60
2017,08,12,01,45,19.60
2017,08,12,01,46,19.60
2017,08,12,01,47,19.70
2017,08,12,01,48,19.70
2017,08,12,01,49,19.70
2017,08,12,01,50,19.70
2017,08,12,01,51,19.70
2017,08,12,01,52,19.70
2017,08,12,01,53,19.70
2017,08,12,01,54,19.70
2017,08,12,01,55,19.70
2017,08,12,01,56,19.70
2017,08,12,01,57,19.60
2017,08,12,01,58,19.60
2017,08,12,01,59,19.50
2017,08,12,02,00,19.40
2017,08,12,02,01,19.30
2017,08,12,02,02,19.20
2017,08,12,02,03,19.10
2017,08,12,02,04,19.00
2017,08,12,02,05,19.00
2017,08,12,02,06,18.90
2017,08,12,02,07,18.90
2017,08,12,02,08,18.80
2017,08,12,02,09,18.80
2017,08,12,02,10,18.80
2017,08,12,02,11,18.80
2017,08,12,02,12,18.70
2017,08,12,02,13,18.70
2017,08,12,02,14,18.70
2017,08,12,02,15,18.60
2017,08,12,02,16,18.60
2017,08,12,02,17,18.60
2017,08,12,02,18,18.60
2017,08,12,02,19,18.60
2017,08,12,02,20,18.60
2017,08,12,02,21,18.60
2017,08,12,02,22,18.70
2017,08,12,02,23,18.70
2017,08,12,02,24,18.70
2017,08,12,02,25,18.80
2017,08,12,02,26,18.80
2017,08,12,02,27,18.80
2017,08,12,02,28,18.80
2017,08,12,02,29,18.80
2017,08,12,02,30,18.80
2017,08,12,02,31,18.80
2017,08,12,02,32,18.80
2017,08,12,02,33,18.80
2017,08,12,02,34,18.80
2017,08,12,02,35,18.80
2017,08,12,02,36,18.80
2017,08,12,02,37,18.80
2017,08,12,02,38,18.80
2017,08,12,02,39,18.80
2017,08,12,02,40,18.80
2017,08,12,02,41,18.80
2017,08,12,02,42,18.70
2017,08,12,02,43,18.70
2017,08,12,02,44,18.70
2017,08,12,02,45,18.70
2017,08,12,02,46,18.70
2017,08,12,02,47,18.70
2017,08,12,02,48,18.70
2017,08,12,02,49,18.70
2017,08,12,02,50,18.70
2017,08,12,02,51,18.60
2017,08,12,02,52,18.60
2017,08,12,02,53,18.60
2017,08,12,02,54,18.60
2017,08,12,02,55,18.60
2017,08,12,02,56,18.50
2017,08,12,02,57,18.50
2017,08,12,02,58,18.50
2017,08,12,02,59,18.50
2017,08,12,03,00,18.40
2017,08,12,03,01,18.40
2017,08,12,03,02,18.40
2017,08,12,03,03,18.40
2017,08,12,03,04,18.40
2017,08,12,03,05,18.30
2017,08,12,03,06,18.30
2017,08,12,03,07,18.30
2017,08,12,03,08,18.30
2017,08,12,03,09,18.30
2017,08,12,03,10,18.30
2017,08,12,03,11,18.30
2017,08,12,03,12,18.20
2017,08,12,03,13,18.20
2017,08,12,03,14,18.20
2017,08,12,03,15,18.20
2017,08,12,03,16,18.20
2017,08,12,03,17,18.20
2017,08,12,03,18,18.20
2017,08,12,03,19,18.10
2017,08,12,03,20,18.10
2017,08,12,03,21,18.10
2017,08,12,03,22,18.00
2017,08,12,03,23,18.00
2017,08,12,03,24,18.00
2017,08,12,03,25,17.90
2017,08,12,03,26,17.90
2017,08,12,03,27,17.90
2017,08,12,03,28,17.90
2017,08,12,03,29,17.80
2017,08,12,03,30,17.80
2017,08,12,03,31,17.80
2017,08,12,03,32,17.80
2017,08,12,03,33,17.80
2017,08,12,03,34,17.70
2017,08,12,03,35,17.70
2017,08,12,03,36,17.70
2017,08,12,03,37,17.70
2017,08,12,03,38,17.70
2017,08,12,03,39,17.60
2017,08,12,03,40,17.60
2017,08,12,03,41,17.60
2017,08,12,03,42,17.50
2017,08,12,03,43,17.50
2017,08,12,03,44,17.50
2017,08,12,03,45,17.40
2017,08,12,03,46,17.40
2017,08,12,03,47,17.40
2017,08,12,03,48,17.40
2017,08,12,03,49,17.40
2017,08,12,03,50,17.30
2017,08,12,03,51,17.30
2017,08,12,03,52,17.30
2017,08,12,03,53,17.30
2017,08,12,03,54,17.20
2017,08,12,03,55,17.20
2017,08,12,03,56,17.20
2017,08,12,03,57,17.20
2017,08,12,03,58,17.20
2017,08,12,03,59,17.20
2017,08,12,04,00,17.10
2017,08,12,04,01,17.10
2017,08,12,04,02,17.10
2017,08,12,04,03,17.10
2017,08,12,04,04,17.10
2017,08,12,04,05,17.10
2017,08,12,04,06,17.10
2017,08,12,04,07,17.10
2017,08,12,04,08,17.10
2017,08,12,04,09,17.10
2017,08,12,04,10,17.10
2017,08,12,04,11,17.10
2017,08,12,04,12,17.10
2017,08,12,04,13,17.10
2017,08,12,04,14,17.10
2017,08,12,04,15,17.00
2017,08,12,04,16,17.00
2017,08,12,04,17,17.00
2017,08,12,04,18,17.00
2017,08,12,04,19,17.00
2017,08,12,04,20,17.00
2017,08,12,04,21,17.00
2017,08,12,04,22,17.00
2017,08,12,04,23,17.00
2017,08,12,04,24,17.00
2017,08,12,04,25,17.00
2017,08,12,04,26,17.10
2017,08,12,04,27,17.10
2017,08,12,04,28,17.10
2017,08,12,04,29,17.10
2017,08,12,04,30,17.10
2017,08,12,04,31,17.10
2017,08,12,04,32,17.10
2017,08,12,04,33,17.10
2017,08,12,04,34,17.10
2017,08,12,04,35,17.10
2017,08,12,04,36,17.10
2017,08,12,04,37,17.10
2017,08,12,04,38,17.00
2017,08,12,04,39,17.00
2017,08,12,04,40,16.90
2017,08,12,04,41,16.90
2017,08,12,04,42,16.90
2017,08,12,04,43,16.80
2017,08,12,04,44,16.80
2017,08,12,04,45,16.80
2017,08,12,04,46,16.70
2017,08,12,04,47,16.70
2017,08,12,04,48,16.60
2017,08,12,04,49,16.60
2017,08,12,04,50,16.50
2017,08,12,04,51,16.50
2017,08,12,04,52,16.50
2017,08,12,04,53,16.40
2017,08,12,04,54,16.40
2017,08,12,04,55,16.40
2017,08,12,04,56,16.30
2017,08,12,04,57,16.30
2017,08,12,04,58,16.30
2017,08,12,04,59,16.30
2017,08,12,05,00,16.30
2017,08,12,05,01,16.20
2017,08,12,05,02,16.20
2017,08,12,05,03,16.20
2017,08,12,05,04,16.20
2017,08,12,05,05,16.20
2017,08,12,05,06,16.10
2017,08,12,05,07,16.10
2017,08,12,05,08,16.10
2017,08,12,05,09,16.10
2017,08,12,05,10,16.10
2017,08,12,05,11,16.10
2017,08,12,05,12,16.00
2017,08,12,05,13,16.00
2017,08,12,05,14,16.00
2017,08,12,05,15,16.00
2017,08,12,05,16,15.90
2017,08,12,05,17,15.90
2017,08,12,05,18,15.90
2017,08,12,05,19,15.90
2017,08,12,05,20,15.90
2017,08,12,05,21,15.80
2017,08,12,05,22,15.80
2017,08,12,05,23,15.80
2017,08,12,05,24,15.80
2017,08,12,05,25,15.80
2017,08,12,05,26,15.80
2017,08,12,05,27,15.70
2017,08,12,05,28,15.70
2017,08,12,05,29,15.70
2017,08,12,05,30,15.70
2017,08,12,05,31,15.70
2017,08,12,05,32,15.60
2017,08,12,05,33,15.60
2017,08,12,05,34,15.60
2017,08,12,05,35,15.60
2017,08,12,05,36,15.60
2017,08,12,05,37,15.60
2017,08,12,05,38,15.50
2017,08,12,05,39,15.50
2017,08,12,05,40,15.50
2017,08,12,05,41,15.50
2017,08,12,05,42,15.50
2017,08,12,05,43,15.50
2017,08,12,05,44,15.50
2017,08,12,05,45,15.50
2017,08,12,05,46,15.50
2017,08,12,05,47,15.50
2017,08,12,05,48,15.50
2017,08,12,05,49,15.50
2017,08,12,05,50,15.50
2017,08,12,05,51,15.50
2017,08,12,05,52,15.50
2017,08,12,05,53,15.50
2017,08,12,05,54,15.50
2017,08,12,05,55,15.50
2017,08,12,05,56,15.40
2017,08,12,05,57,15.40
2017,08,12,05,58,15.40
2017,08,12,05,59,15.40
2017,08,12,06,00,15.40
2017,08,12,06,01,15.40
2017,08,12,06,02,15.40
2017,08,12,06,03,15.40
2017,08,12,06,04,15.30
2017,08,12,06,05,15.30
2017,08,12,06,06,15.30
2017,08,12,06,07,15.30
2017,08,12,06,08,15.30
2017,08,12,06,09,15.30
2017,08,12,06,10,15.30
2017,08,12,06,11,15.30
2017,08,12,06,12,15.20
2017,08,12,06,13,15.20
2017,08,12,06,14,15.20
2017,08,12,06,15,15.20
2017,08,12,06,16,15.20
2017,08,12,06,17,15.20
2017,08,12,06,18,15.20
2017,08,12,06,19,15.20
2017,08,12,06,20,15.10
2017,08,12,06,21,15.10
2017,08,12,06,22,15.10
2017,08,12,06,23,15.10
2017,08,12,06,24,15.10
2017,08,12,06,25,15.10
2017,08,12,06,26,15.10
2017,08,12,06,27,15.00
2017,08,12,06,28,15.00
2017,08,12,06,29,15.00
2017,08,12,06,30,15.00
2017,08,12,06,31,15.00
2017,08,12,06,32,15.00
2017,08,12,06,33,15.10
2017,08,12,06,34,15.00
2017,08,12,06,35,15.10
2017,08,12,06,36,15.10
2017,08,12,06,37,15.00
2017,08,12,06,38,15.10
2017,08,12,06,39,15.10
2017,08,12,06,40,15.10
2017,08,12,06,41,15.10
2017,08,12,06,42,15.10
2017,08,12,06,43,15.10
2017,08,12,06,44,15.00
2017,08,12,06,45,15.10
2017,08,12,06,46,15.10
2017,08,12,06,47,15.10
2017,08,12,06,48,15.10
2017,08,12,06,49,15.10
2017,08,12,06,50,15.00
2017,08,12,06,51,15.00
2017,08,12,06,52,15.00
2017,08,12,06,53,15.00
2017,08,12,06,54,15.00
2017,08,12,06,55,15.00
2017,08,12,06,56,15.00
2017,08,12,06,57,15.00
2017,08,12,06,58,15.00
2017,08,12,06,59,15.00
2017,08,12,07,00,15.00
2017,08,12,07,01,15.00
2017,08,12,07,02,15.00
2017,08,12,07,03,15.00
2017,08,12,07,04,15.00
2017,08,12,07,05,15.00
2017,08,12,07,06,15.00
2017,08,12,07,07,15.00
2017,08,12,07,08,15.00
2017,08,12,07,09,15.00
2017,08,12,07,10,15.00
2017,08,12,07,11,15.00
2017,08,12,07,12,15.00
2017,08,12,07,13,15.00
2017,08,12,07,14,15.00
2017,08,12,07,15,15.00
2017,08,12,07,16,15.00
2017,08,12,07,17,15.00
2017,08,12,07,18,15.00
2017,08,12,07,19,15.00
2017,08,12,07,20,15.00
2017,08,12,07,21,15.00
2017,08,12,07,22,15.00
2017,08,12,07,23,15.00
2017,08,12,07,24,15.00
2017,08,12,07,25,15.00
2017,08,12,07,26,15.00
2017,08,12,07,27,15.00
2017,08,12,07,28,15.00
2017,08,12,07,29,15.00
2017,08,12,07,30,15.00
2017,08,12,07,31,15.00
2017,08,12,07,32,15.00
2017,08,12,07,33,15.00
2017,08,12,07,34,15.00
2017,08,12,07,35,15.00
2017,08,12,07,36,15.00
2017,08,12,07,37,15.00
2017,08,12,07,38,15.00
2017,08,12,07,39,15.00
2017,08,12,07,40,15.00
2017,08,12,07,41,15.00
2017,08,12,07,42,15.00
2017,08,12,07,43,15.00
2017,08,12,07,44,15.00
2017,08,12,07,45,15.00
2017,08,12,07,46,15.00
2017,08,12,07,47,15.00
2017,08,12,07,48,15.00
2017,08,12,07,49,15.00
2017,08,12,07,50,15.00
2017,08,12,07,51,15.00
2017,08,12,07,52,15.00
2017,08,12,07,53,15.00
2017,08,12,07,54,15.00
2017,08,12,07,55,15.00
2017,08,12,07,56,15.00
2017,08,12,07,57,15.00
2017,08,12,07,58,15.00
2017,08,12,07,59,15.00
2017,08,12,08,00,15.10
2017,08,12,08,01,15.10
2017,08,12,08,02,15.20
2017,08,12,08,03,15.20
2017,08,12,08,04,15.20
2017,08,12,08,05,15.30
2017,08,12,08,06,15.30
2017,08,12,08,07,15.40
2017,08,12,08,08,15.40
2017,08,12,08,09,15.40
2017,08,12,08,10,15.50
2017,08,12,08,11,15.60
2017,08,12,08,12,15.60
2017,08,12,08,13,15.60
2017,08,12,08,14,15.60
2017,08,12,08,15,15.60
2017,08,12,08,16,15.70
2017,08,12,08,17,15.70
2017,08,12,08,18,15.70
2017,08,12,08,19,15.80
2017,08,12,08,20,15.80
2017,08,12,08,21,15.90
2017,08,12,08,22,15.90
2017,08,12,08,23,16.00
2017,08,12,08,24,16.10
2017,08,12,08,25,16.10
2017,08,12,08,26,16.20
2017,08,12,08,27,16.20
2017,08,12,08,28,16.30
2017,08,12,08,29,16.40
2017,08,12,08,30,16.40
2017,08,12,08,31,16.50
2017,08,12,08,32,16.60
2017,08,12,08,33,16.70
2017,08,12,08,34,16.70
2017,08,12,08,35,16.80
2017,08,12,08,36,16.90
2017,08,12,08,37,16.90
2017,08,12,08,38,17.00
2017,08,12,08,39,17.10
2017,08,12,08,40,17.20
2017,08,12,08,41,17.30
2017,08,12,08,42,17.40
2017,08,12,08,43,17.50
2017,08,12,08,44,17.50
2017,08,12,08,45,17.60
2017,08,12,08,46,17.60
2017,08,12,08,47,17.70
2017,08,12,08,48,17.80
2017,08,12,08,49,17.80
2017,08,12,08,50,17.90
2017,08,12,08,51,18.00
2017,08,12,08,52,18.00
2017,08,12,08,53,18.10
2017,08,12,08,54,18.10
2017,08,12,08,55,18.20
2017,08,12,08,56,18.20
2017,08,12,08,57,18.30
2017,08,12,08,58,18.30
2017,08,12,08,59,18.30
2017,08,12,09,00,18.20
2017,08,12,09,01,18.10
2017,08,12,09,02,18.10
2017,08,12,09,03,18.00
2017,08,12,09,04,17.90
2017,08,12,09,05,17.90
2017,08,12,09,06,17.80
2017,08,12,09,07,17.60
2017,08,12,09,08,17.50
2017,08,12,09,09,17.40
2017,08,12,09,10,17.30
2017,08,12,09,11,17.30
2017,08,12,09,12,17.30
2017,08,12,09,13,17.20
2017,08,12,09,14,17.20
2017,08,12,09,15,17.10
2017,08,12,09,16,17.00
2017,08,12,09,17,16.90
2017,08,12,09,18,16.90
2017,08,12,09,19,17.00
2017,08,12,09,20,17.00
2017,08,12,09,21,17.00
2017,08,12,09,22,17.10
2017,08,12,09,23,17.20
2017,08,12,09,24,17.20
2017,08,12,09,25,17.30
2017,08,12,09,26,17.30
2017,08,12,09,27,17.40
2017,08,12,09,28,17.50
2017,08,12,09,29,17.60
2017,08,12,09,30,17.50
2017,08,12,09,31,17.40
2017,08,12,09,32,17.40
2017,08,12,09,33,17.30
2017,08,12,09,34,17.30
2017,08,12,09,35,17.30
2017,08,12,09,36,17.30
2017,08,12,09,37,17.40
2017,08,12,09,38,17.40
2017,08,12,09,39,17.50
2017,08,12,09,40,17.60
2017,08,12,09,41,17.70
2017,08,12,09,42,17.80
2017,08,12,09,43,17.80
2017,08,12,09,44,17.70
2017,08,12,09,45,17.70
2017,08,12,09,46,17.70
2017,08,12,09,47,17.70
2017,08,12,09,48,17.70
2017,08,12,09,49,17.70
2017,08,12,09,50,17.70
2017,08,12,09,51,17.70
2017,08,12,09,52,17.80
2017,08,12,09,53,17.80
2017,08,12,09,54,17.80
2017,08,12,09,55,17.80
2017,08,12,09,56,17.90
2017,08,12,09,57,18.00
2017,08,12,09,58,18.10
2017,08,12,09,59,18.10
2017,08,12,10,00,18.10
2017,08,12,10,01,18.10
2017,08,12,10,02,18.10
2017,08,12,10,03,18.10
2017,08,12,10,04,18.10
2017,08,12,10,05,18.00
2017,08,12,10,06,18.00
2017,08,12,10,07,17.90
2017,08,12,10,08,17.80
2017,08,12,10,09,17.70
2017,08,12,10,10,17.70
2017,08,12,10,11,17.70
2017,08,12,10,12,17.70
2017,08,12,10,13,17.80
2017,08,12,10,14,17.90
2017,08,12,10,15,18.00
2017,08,12,10,16,18.00
2017,08,12,10,17,18.00
2017,08,12,10,18,18.10
2017,08,12,10,19,18.10
2017,08,12,10,20,18.10
2017,08,12,10,21,18.10
2017,08,12,10,22,18.20
2017,08,12,10,23,18.20
2017,08,12,10,24,18.30
2017,08,12,10,25,18.30
2017,08,12,10,26,18.30
2017,08,12,10,27,18.20
2017,08,12,10,28,18.20
2017,08,12,10,29,18.10
2017,08,12,10,30,18.00
2017,08,12,10,31,18.00
2017,08,12,10,32,18.00
2017,08,12,10,33,17.90
2017,08,12,10,34,17.90
2017,08,12,10,35,17.90
2017,08,12,10,36,17.90
2017,08,12,10,37,18.00
2017,08,12,10,38,18.00
2017,08,12,10,39,18.10
2017,08,12,10,40,18.10
2017,08,12,10,41,18.20
2017,08,12,10,42,18.20
2017,08,12,10,43,18.20
2017,08,12,10,44,18.20
2017,08,12,10,45,18.20
2017,08,12,10,46,18.20
2017,08,12,10,47,18.20
2017,08,12,10,48,18.20
2017,08,12,10,49,18.10
2017,08,12,10,50,18.20
2017,08,12,10,51,18.20
2017,08,12,10,52,18.30
2017,08,12,10,53,18.30
2017,08,12,10,54,18.30
2017,08,12,10,55,18.30
2017,08,12,10,56,18.40
2017,08,12,10,57,18.50
2017,08,12,10,58,18.60
2017,08,12,10,59,18.60
2017,08,12,11,00,18.60
2017,08,12,11,01,18.60
2017,08,12,11,02,18.70
2017,08,12,11,03,18.80
2017,08,12,11,04,18.90
2017,08,12,11,05,18.90
2017,08,12,11,06,18.80
2017,08,12,11,07,18.70
2017,08,12,11,08,18.70
2017,08,12,11,09,18.70
2017,08,12,11,10,18.70
2017,08,12,11,11,18.70
2017,08,12,11,12,18.70
2017,08,12,11,13,18.60
2017,08,12,11,14,18.50
2017,08,12,11,15,18.50
2017,08,12,11,16,18.40
2017,08,12,11,17,18.30
2017,08,12,11,18,18.20
2017,08,12,11,19,18.10
2017,08,12,11,20,18.00
2017,08,12,11,21,17.90
2017,08,12,11,22,17.90
2017,08,12,11,23,18.00
2017,08,12,11,24,18.10
2017,08,12,11,25,18.30
2017,08,12,11,26,18.40
2017,08,12,11,27,18.60
2017,08,12,11,28,18.80
2017,08,12,11,29,18.90
2017,08,12,11,30,19.00
2017,08,12,11,31,19.10
2017,08,12,11,32,19.20
2017,08,12,11,33,19.20
2017,08,12,11,34,19.30
2017,08,12,11,35,19.30
2017,08,12,11,36,19.40
2017,08,12,11,37,19.50
2017,08,12,11,38,19.50
2017,08,12,11,39,19.40
2017,08,12,11,40,19.40
2017,08,12,11,41,19.30
2017,08,12,11,42,19.30
2017,08,12,11,43,19.20
2017,08,12,11,44,19.10
2017,08,12,11,45,19.00
2017,08,12,11,46,19.00
2017,08,12,11,47,19.00
2017,08,12,11,48,19.00
2017,08,12,11,49,18.90
2017,08,12,11,50,19.00
2017,08,12,11,51,19.00
2017,08,12,11,52,19.00
2017,08,12,11,53,19.00
2017,08,12,11,54,19.10
2017,08,12,11,55,19.10
2017,08,12,11,56,19.20
2017,08,12,11,57,19.10
2017,08,12,11,58,19.00
2017,08,12,11,59,19.00
2017,08,12,12,00,19.00
2017,08,12,12,01,19.00
2017,08,12,12,02,19.20
2017,08,12,12,03,19.30
2017,08,12,12,04,19.50
2017,08,12,12,05,19.70
2017,08,12,12,06,19.90
2017,08,12,12,07,20.10
2017,08,12,12,08,20.30
2017,08,12,12,09,20.50
2017,08,12,12,10,20.60
2017,08,12,12,11,20.50
2017,08,12,12,12,20.40
2017,08,12,12,13,20.30
2017,08,12,12,14,20.20
2017,08,12,12,15,20.20
2017,08,12,12,16,20.10
2017,08,12,12,17,19.90
2017,08,12,12,18,19.80
2017,08,12,12,19,19.80
2017,08,12,12,20,19.70
2017,08,12,12,21,19.50
2017,08,12,12,22,19.40
2017,08,12,12,23,19.30
2017,08,12,12,24,19.20
2017,08,12,12,25,19.10
2017,08,12,12,26,19.00
2017,08,12,12,27,19.00
2017,08,12,12,28,18.90
2017,08,12,12,29,18.90
2017,08,12,12,30,19.00
2017,08,12,12,31,19.00
2017,08,12,12,32,19.10
2017,08,12,12,33,19.20
2017,08,12,12,34,19.20
2017,08,12,12,35,19.20
2017,08,12,12,36,19.20
2017,08,12,12,37,19.20
2017,08,12,12,38,19.30
2017,08,12,12,39,19.40
2017,08,12,12,40,19.60
2017,08,12,12,41,19.60
2017,08,12,12,42,19.70
2017,08,12,12,43,19.70
2017,08,12,12,44,19.70
2017,08,12,12,45,19.60
2017,08,12,12,46,19.60
2017,08,12,12,47,19.50
2017,08,12,12,48,19.50
2017,08,12,12,49,19.40
2017,08,12,12,50,19.20
2017,08,12,12,51,19.10
2017,08,12,12,52,19.00
2017,08,12,12,53,18.90
2017,08,12,12,54,18.90
2017,08,12,12,55,18.90
2017,08,12,12,56,19.00
2017,08,12,12,57,18.90
2017,08,12,12,58,18.90
2017,08,12,12,59,18.80
2017,08,12,13,00,18.80
2017,08,12,13,01,18.80
2017,08,12,13,02,18.80
2017,08,12,13,03,18.80
2017,08,12,13,04,18.80
2017,08,12,13,05,18.90
2017,08,12,13,06,18.90
2017,08,12,13,07,19.00
2017,08,12,13,08,19.00
2017,08,12,13,09,19.00
2017,08,12,13,10,19.00
2017,08,12,13,11,18.90
2017,08,12,13,12,18.90
2017,08,12,13,13,19.00
2017,08,12,13,14,19.00
2017,08,12,13,15,19.00
2017,08,12,13,16,19.00
2017,08,12,13,17,19.00
2017,08,12,13,18,18.90
2017,08,12,13,19,18.90
2017,08,12,13,20,18.90
2017,08,12,13,21,18.80
2017,08,12,13,22,18.70
2017,08,12,13,23,18.60
2017,08,12,13,24,18.50
2017,08,12,13,25,18.50
2017,08,12,13,26,18.40
2017,08,12,13,27,18.40
2017,08,12,13,28,18.50
2017,08,12,13,29,18.50
2017,08,12,13,30,18.60
2017,08,12,13,31,18.60
2017,08,12,13,32,18.70
2017,08,12,13,33,18.70
2017,08,12,13,34,18.70
2017,08,12,13,35,18.70
2017,08,12,13,36,18.70
2017,08,12,13,37,18.70
2017,08,12,13,38,18.80
2017,08,12,13,39,18.80
2017,08,12,13,40,18.90
2017,08,12,13,41,18.90
2017,08,12,13,42,19.00
2017,08,12,13,43,19.10
2017,08,12,13,44,19.10
2017,08,12,13,45,19.10
2017,08,12,13,46,19.10
2017,08,12,13,47,19.20
2017,08,12,13,48,19.30
2017,08,12,13,49,19.40
2017,08,12,13,50,19.50
2017,08,12,13,51,19.60
2017,08,12,13,52,19.60
2017,08,12,13,53,19.60
2017,08,12,13,54,19.60
2017,08,12,13,55,19.50
2017,08,12,13,56,19.50
2017,08,12,13,57,19.60
2017,08,12,13,58,19.70
2017,08,12,13,59,19.80
2017,08,12,14,00,19.80
2017,08,12,14,01,19.80
2017,08,12,14,02,19.70
2017,08,12,14,03,19.70
2017,08,12,14,04,19.70
2017,08,12,14,05,19.70
2017,08,12,14,06,19.80
2017,08,12,14,07,19.70
2017,08,12,14,08,19.60
2017,08,12,14,09,19.50
2017,08,12,14,10,19.40
2017,08,12,14,11,19.30
2017,08,12,14,12,19.30
2017,08,12,14,13,19.40
2017,08,12,14,14,19.50
2017,08,12,14,15,19.50
2017,08,12,14,16,19.60
2017,08,12,14,17,19.70
2017,08,12,14,18,19.70
2017,08,12,14,19,19.70
2017,08,12,14,20,19.70
2017,08,12,14,21,19.80
2017,08,12,14,22,19.80
2017,08,12,14,23,19.80
2017,08,12,14,24,19.70
2017,08,12,14,25,19.70
2017,08,12,14,26,19.70
2017,08,12,14,27,19.70
2017,08,12,14,28,19.70
2017,08,12,14,29,19.80
2017,08,12,14,30,19.90
2017,08,12,14,31,20.00
2017,08,12,14,32,20.10
2017,08,12,14,33,20.20
2017,08,12,14,34,20.30
2017,08,12,14,35,20.30
2017,08,12,14,36,20.30
2017,08,12,14,37,20.30
2017,08,12,14,38,20.20
2017,08,12,14,39,20.10
2017,08,12,14,40,20.00
2017,08,12,14,41,20.00
2017,08,12,14,42,20.00
2017,08,12,14,43,20.00
2017,08,12,14,44,20.00
2017,08,12,14,45,20.00
2017,08,12,14,46,20.10
2017,08,12,14,47,20.10
2017,08,12,14,48,20.20
2017,08,12,14,49,20.30
2017,08,12,14,50,20.40
2017,08,12,14,51,20.50
2017,08,12,14,52,20.60
2017,08,12,14,53,20.80
2017,08,12,14,54,20.90
2017,08,12,14,55,21.00
2017,08,12,14,56,21.20
2017,08,12,14,57,21.30
2017,08,12,14,58,21.30
2017,08,12,14,59,21.30
2017,08,12,15,00,21.30
2017,08,12,15,01,21.40
2017,08,12,15,02,21.40
2017,08,12,15,03,21.40
2017,08,12,15,04,21.40
2017,08,12,15,05,21.50
2017,08,12,15,06,21.50
2017,08,12,15,07,21.30
2017,08,12,15,08,21.00
2017,08,12,15,09,20.80
2017,08,12,15,10,20.70
2017,08,12,15,11,20.80
2017,08,12,15,12,20.80
2017,08,12,15,13,20.80
2017,08,12,15,14,20.80
2017,08,12,15,15,20.90
2017,08,12,15,16,21.00
2017,08,12,15,17,21.10
2017,08,12,15,18,21.10
2017,08,12,15,19,21.20
2017,08,12,15,20,21.20
2017,08,12,15,21,21.10
2017,08,12,15,22,21.10
2017,08,12,15,23,21.00
2017,08,12,15,24,21.00
2017,08,12,15,25,20.90
2017,08,12,15,26,20.90
2017,08,12,15,27,20.90
2017,08,12,15,28,20.80
2017,08,12,15,29,20.70
2017,08,12,15,30,20.50
2017,08,12,15,31,20.40
2017,08,12,15,32,20.30
2017,08,12,15,33,20.30
2017,08,12,15,34,20.30
2017,08,12,15,35,20.10
2017,08,12,15,36,20.00
2017,08,12,15,37,19.90
2017,08,12,15,38,19.80
2017,08,12,15,39,19.70
2017,08,12,15,40,19.60
2017,08,12,15,41,19.60
2017,08,12,15,42,19.60
2017,08,12,15,43,19.70
2017,08,12,15,44,19.80
2017,08,12,15,45,19.90
2017,08,12,15,46,20.00
2017,08,12,15,47,20.10
2017,08,12,15,48,20.20
2017,08,12,15,49,20.40
2017,08,12,15,50,20.50
2017,08,12,15,51,20.60
2017,08,12,15,52,20.70
2017,08,12,15,53,20.90
2017,08,12,15,54,21.00
2017,08,12,15,55,21.10
2017,08,12,15,56,21.20
2017,08,12,15,57,21.20
2017,08,12,15,58,21.30
2017,08,12,15,59,21.40
2017,08,12,16,00,21.50
2017,08,12,16,01,21.70
2017,08,12,16,02,21.80
2017,08,12,16,03,21.90
2017,08,12,16,04,21.90
2017,08,12,16,05,21.80
2017,08,12,16,06,21.80
2017,08,12,16,07,21.70
2017,08,12,16,08,21.60
2017,08,12,16,09,21.50
2017,08,12,16,10,21.40
2017,08,12,16,11,21.30
2017,08,12,16,12,21.30
2017,08,12,16,13,21.20
2017,08,12,16,14,21.20
2017,08,12,16,15,21.10
2017,08,12,16,16,21.00
2017,08,12,16,17,20.90
2017,08,12,16,18,20.70
2017,08,12,16,19,20.50
2017,08,12,16,20,20.40
2017,08,12,16,21,20.30
2017,08,12,16,22,20.20
2017,08,12,16,23,20.20
2017,08,12,16,24,20.00
2017,08,12,16,25,20.00
2017,08,12,16,26,19.90
2017,08,12,16,27,19.90
2017,08,12,16,28,19.80
2017,08,12,16,29,19.80
2017,08,12,16,30,19.80
2017,08,12,16,31,19.80
2017,08,12,16,32,19.80
2017,08,12,16,33,19.80
2017,08,12,16,34,19.80
2017,08,12,16,35,19.70
2017,08,12,16,36,19.70
2017,08,12,16,37,19.80
2017,08,12,16,38,19.80
2017,08,12,16,39,19.80
2017,08,12,16,40,19.80
2017,08,12,16,41,19.80
2017,08,12,16,42,19.80
2017,08,12,16,43,19.90
2017,08,12,16,44,19.80
2017,08,12,16,45,19.80
2017,08,12,16,46,19.80
2017,08,12,16,47,19.70
2017,08,12,16,48,19.70
2017,08,12,16,49,19.70
2017,08,12,16,50,19.70
2017,08,12,16,51,19.60
2017,08,12,16,52,19.60
2017,08,12,16,53,19.60
2017,08,12,16,54,19.60
2017,08,12,16,55,19.60
2017,08,12,16,56,19.60
2017,08,12,16,57,19.50
2017,08,12,16,58,19.50
2017,08,12,16,59,19.40
2017,08,12,17,00,19.40
2017,08,12,17,01,19.40
2017,08,12,17,02,19.30
2017,08,12,17,03,19.30
2017,08,12,17,04,19.30
2017,08,12,17,05,19.40
2017,08,12,17,06,19.40
2017,08,12,17,07,19.40
2017,08,12,17,08,19.40
2017,08,12,17,09,19.40
2017,08,12,17,10,19.40
2017,08,12,17,11,19.40
2017,08,12,17,12,19.30
2017,08,12,17,13,19.30
2017,08,12,17,14,19.20
2017,08,12,17,15,19.20
2017,08,12,17,16,19.20
2017,08,12,17,17,19.20
2017,08,12,17,18,19.20
2017,08,12,17,19,19.20